| time (UTC) | temp F | wind direction | speed MPH | gust MPH | rain 1hr in | rain 24hr in | rain mn in | humidity % | barometer mb |
| 20260906110104 | 71 | 35 | 5.0 | 12.0 | 0.00 | 0.05 | 0.00 | 95 | 1013.7 |
| 20260906104628 | 71 | 44 | 7.0 | 13.0 | 0.00 | 0.05 | 0.00 | 95 | 1013.6 |
| 20260906103106 | 71 | 37 | 5.0 | 13.0 | 0.00 | 0.05 | 0.00 | 95 | 1013.3 |
| 20260906101603 | 71 | 30 | 6.0 | 14.0 | 0.00 | 0.05 | 0.00 | 95 | 1013.2 |
| 20260906100103 | 71 | 42 | 7.0 | 13.0 | 0.00 | 0.05 | 0.00 | 96 | 1012.9 |
| 20260906094643 | 71 | 33 | 6.0 | 12.0 | 0.00 | 0.07 | 0.00 | 96 | 1012.7 |
| 20260906093109 | 72 | 50 | 6.0 | 11.0 | 0.00 | 0.07 | 0.00 | 96 | 1012.6 |
| 20260906091609 | 72 | 43 | 6.0 | 12.0 | 0.00 | 0.07 | 0.00 | 96 | 1012.5 |
| 20260906084606 | 72 | 32 | 8.0 | 13.0 | 0.00 | 0.07 | 0.00 | 96 | 1012.2 |
| 20260906083104 | 72 | 24 | 8.0 | 12.0 | 0.00 | 0.07 | 0.00 | 96 | 1012.3 |
| 20260906081602 | 72 | 34 | 5.0 | 9.0 | 0.00 | 0.07 | 0.00 | 96 | 1012.5 |
| 20260906080106 | 72 | 57 | 5.0 | 11.0 | 0.00 | 0.07 | 0.00 | 96 | 1012.2 |
| 20260906074609 | 72 | 17 | 4.0 | 8.0 | 0.00 | 0.07 | 0.00 | 96 | 1012.4 |
| 20260906073104 | 72 | 22 | 5.0 | 10.0 | 0.00 | 0.07 | 0.00 | 95 | 1012.3 |
| 20260906071604 | 72 | 47 | 4.0 | 10.0 | 0.00 | 0.07 | 0.00 | 95 | 1012.3 |
| 20260906070100 | 72 | 17 | 6.0 | 10.0 | 0.00 | 0.07 | 0.00 | 95 | 1012.5 |
| 20260906064602 | 72 | 38 | 3.0 | 8.0 | 0.00 | 0.07 | 0.00 | 94 | 1012.6 |
| 20260906063107 | 72 | 37 | 2.0 | 7.0 | 0.00 | 0.07 | 0.00 | 94 | 1012.7 |
| 20260906061605 | 72 | 32 | 4.0 | 8.0 | 0.00 | 0.07 | 0.00 | 94 | 1012.6 |
| 20260906060109 | 72 | 14 | 4.0 | 8.0 | 0.00 | 0.07 | 0.00 | 93 | 1012.6 |
| 20260906054601 | 72 | 16 | 3.0 | 5.0 | 0.00 | 0.07 | 0.00 | 93 | 1012.7 |
| 20260906053107 | 72 | 30 | 3.0 | 5.0 | 0.00 | 0.07 | 0.00 | 92 | 1012.7 |
| 20260906051604 | 72 | 74 | 0.0 | 3.0 | 0.00 | 0.07 | 0.00 | 92 | 1012.7 |
| 20260906050128 | 72 | 0 | 0.0 | 3.0 | 0.00 | 0.07 | 0.00 | 91 | 1012.7 |
| 20260906044602 | 72 | 80 | 3.0 | 5.0 | 0.00 | 0.07 | 0.00 | 91 | 1012.5 |
| 20260906043101 | 73 | 61 | 3.0 | 6.0 | 0.00 | 0.07 | 0.00 | 91 | 1012.5 |
| 20260906041601 | 72 | 55 | 2.0 | 6.0 | 0.00 | 0.07 | 0.00 | 90 | 1012.3 |
| 20260906040137 | 73 | 34 | 4.0 | 8.0 | 0.00 | 0.07 | 0.00 | 90 | 1012.1 |
| 20260906034607 | 73 | 15 | 4.0 | 7.0 | 0.00 | 0.07 | 0.07 | 90 | 1012.2 |
| 20260906033104 | 73 | 355 | 4.0 | 8.0 | 0.00 | 0.07 | 0.07 | 88 | 1012.1 |
| 20260906031603 | 73 | 332 | 3.0 | 5.0 | 0.00 | 0.07 | 0.07 | 87 | 1012.2 |
| 20260906030107 | 73 | 355 | 2.0 | 4.0 | 0.00 | 0.07 | 0.07 | 86 | 1012.0 |
| 20260906024604 | 74 | 51 | 3.0 | 8.0 | 0.00 | 0.07 | 0.07 | 84 | 1012.0 |
| 20260906023103 | 74 | 31 | 4.0 | 10.0 | 0.00 | 0.07 | 0.07 | 83 | 1011.8 |
| 20260906021609 | 76 | 65 | 3.0 | 6.0 | 0.00 | 0.07 | 0.07 | 82 | 1011.9 |
| 20260906020107 | 76 | 46 | 2.0 | 11.0 | 0.00 | 0.07 | 0.07 | 81 | 1011.9 |
| 20260906014602 | 77 | 80 | 6.0 | 13.0 | 0.00 | 0.07 | 0.07 | 81 | 1012.1 |
| 20260906013101 | 78 | 79 | 6.0 | 21.0 | 0.00 | 0.07 | 0.07 | 81 | 1011.9 |
| 20260906011604 | 80 | 48 | 14.0 | 24.0 | 0.00 | 0.07 | 0.07 | 77 | 1012.0 |
| 20260906010109 | 86 | 24 | 4.0 | 8.0 | 0.00 | 0.07 | 0.07 | 68 | 1011.7 |
| 20260906004605 | 87 | 355 | 2.0 | 3.0 | 0.00 | 0.07 | 0.07 | 67 | 1011.1 |
| 20260906003108 | 87 | 355 | 2.0 | 4.0 | 0.00 | 0.07 | 0.07 | 66 | 1011.0 |
| 20260906001617 | 87 | 0 | 0.0 | 2.0 | 0.00 | 0.07 | 0.07 | 65 | 1010.6 |
| 20260906000108 | 88 | 352 | 2.0 | 3.0 | 0.00 | 0.07 | 0.07 | 65 | 1010.8 |
| 20260905234602 | 88 | 352 | 0.0 | 2.0 | 0.00 | 0.07 | 0.07 | 64 | 1011.2 |
| 20260905233112 | 88 | 352 | 2.0 | 3.0 | 0.00 | 0.07 | 0.07 | 64 | 1011.2 |
| 20260905231600 | 88 | 0 | 0.0 | 2.0 | 0.00 | 0.07 | 0.07 | 64 | 1011.2 |
| 20260905230106 | 88 | 352 | 1.0 | 4.0 | 0.00 | 0.07 | 0.07 | 65 | 1011.3 |
| 20260905224609 | 88 | 355 | 3.0 | 4.0 | 0.00 | 0.07 | 0.07 | 65 | 1011.2 |
| 20260905223104 | 89 | 311 | 1.0 | 4.0 | 0.00 | 0.07 | 0.07 | 64 | 1011.0 |
| 20260905221603 | 90 | 308 | 3.0 | 5.0 | 0.00 | 0.07 | 0.07 | 63 | 1011.1 |
| 20260905220105 | 90 | 301 | 4.0 | 9.0 | 0.00 | 0.07 | 0.07 | 62 | 1011.1 |
| 20260905214600 | 90 | 316 | 6.0 | 10.0 | 0.00 | 0.07 | 0.07 | 61 | 1011.0 |
| 20260905213109 | 90 | 336 | 6.0 | 11.0 | 0.00 | 0.07 | 0.07 | 61 | 1010.9 |
| 20260905211603 | 90 | 281 | 3.0 | 11.0 | 0.00 | 0.07 | 0.07 | 62 | 1011.1 |
| 20260905210113 | 91 | 321 | 6.0 | 10.0 | 0.00 | 0.07 | 0.07 | 61 | 1011.3 |
| 20260905204604 | 91 | 280 | 7.0 | 12.0 | 0.00 | 0.07 | 0.07 | 60 | 1011.4 |
| 20260905203107 | 90 | 259 | 5.0 | 10.0 | 0.00 | 0.07 | 0.07 | 61 | 1011.7 |
| 20260905201609 | 90 | 261 | 9.0 | 14.0 | 0.00 | 0.07 | 0.07 | 61 | 1011.8 |
| 20260905200152 | 90 | 254 | 4.0 | 11.0 | 0.00 | 0.07 | 0.07 | 61 | 1011.8 |
| 20260905194616 | 90 | 265 | 2.0 | 9.0 | 0.00 | 0.07 | 0.07 | 59 | 1012.0 |
| 20260905193100 | 89 | 259 | 4.0 | 9.0 | 0.00 | 0.07 | 0.07 | 61 | 1012.1 |
| 20260905191602 | 89 | 254 | 4.0 | 10.0 | 0.00 | 0.07 | 0.07 | 60 | 1012.4 |
| 20260905184611 | 88 | 227 | 4.0 | 12.0 | 0.00 | 0.07 | 0.07 | 62 | 1012.8 |
| 20260905183112 | 87 | 243 | 4.0 | 12.0 | 0.00 | 0.07 | 0.07 | 65 | 1012.8 |
| 20260905181601 | 86 | 205 | 3.0 | 12.0 | 0.00 | 0.07 | 0.07 | 66 | 1012.9 |
| 20260905174607 | 85 | 248 | 5.0 | 11.0 | 0.00 | 0.07 | 0.07 | 67 | 1013.2 |
| 20260905173100 | 84 | 254 | 4.0 | 9.0 | 0.00 | 0.07 | 0.07 | 66 | 1013.5 |
| 20260905171607 | 84 | 208 | 6.0 | 10.0 | 0.00 | 0.07 | 0.07 | 66 | 1013.4 |
| 20260905170109 | 83 | 247 | 2.0 | 7.0 | 0.00 | 0.07 | 0.07 | 68 | 1013.7 |
| 20260905164605 | 82 | 251 | 4.0 | 10.0 | 0.00 | 0.07 | 0.07 | 68 | 1014.0 |
| 20260905163104 | 82 | 169 | 5.0 | 12.0 | 0.00 | 0.07 | 0.07 | 67 | 1014.2 |
| 20260905161609 | 81 | 142 | 3.0 | 8.0 | 0.00 | 0.07 | 0.07 | 70 | 1014.2 |
| 20260905160106 | 80 | 150 | 5.0 | 12.0 | 0.00 | 0.07 | 0.07 | 70 | 1014.2 |
| 20260905154600 | 79 | 157 | 7.0 | 10.0 | 0.00 | 0.07 | 0.07 | 73 | 1014.1 |
| 20260905153102 | 79 | 194 | 4.0 | 12.0 | 0.00 | 0.07 | 0.07 | 74 | 1014.0 |
| 20260905151602 | 77 | 128 | 5.0 | 11.0 | 0.00 | 0.07 | 0.07 | 76 | 1014.0 |
| 20260905144604 | 76 | 146 | 3.0 | 8.0 | 0.00 | 0.07 | 0.07 | 79 | 1014.0 |
| 20260905143105 | 75 | 134 | 2.0 | 9.0 | 0.00 | 0.07 | 0.07 | 78 | 1014.2 |
| 20260905141601 | 74 | 123 | 6.0 | 12.0 | 0.00 | 0.07 | 0.07 | 80 | 1014.2 |
| 20260905140105 | 73 | 94 | 6.0 | 12.0 | 0.00 | 0.07 | 0.07 | 82 | 1014.4 |
| 20260905134611 | 72 | 96 | 4.0 | 13.0 | 0.00 | 0.07 | 0.07 | 85 | 1014.7 |
| 20260905133100 | 71 | 99 | 5.0 | 10.0 | 0.00 | 0.07 | 0.07 | 88 | 1015.1 |
| 20260905131605 | 70 | 111 | 4.0 | 12.0 | 0.00 | 0.07 | 0.07 | 89 | 1015.4 |
| 20260905124605 | 69 | 107 | 9.0 | 14.0 | 0.04 | 0.07 | 0.07 | 90 | 1015.7 |
| 20260905123108 | 70 | 113 | 10.0 | 14.0 | 0.05 | 0.07 | 0.07 | 90 | 1015.9 |
| 20260905121603 | 70 | 111 | 1.0 | 9.0 | 0.05 | 0.07 | 0.07 | 89 | 1016.5 |
| 20260905120105 | 70 | 155 | 9.0 | 13.0 | 0.05 | 0.07 | 0.07 | 87 | 1016.5 |
| 20260905114613 | 72 | 121 | 6.0 | 13.0 | 0.01 | 0.03 | 0.03 | 85 | 1016.2 |
| 20260905113108 | 73 | 53 | 10.0 | 30.0 | 0.00 | 0.02 | 0.02 | 83 | 1015.9 |
| 20260905111613 | 74 | 36 | 15.0 | 39.0 | 0.00 | 0.02 | 0.02 | 83 | 1015.0 |